TOURFACTS.DK  
Stats and Facts from Tour de France.

Tour de France 2019 starts in 348 days
  Riders   Stages   Teams   Summits   Yearly  


 
Search by year

After 2018 - Stage 14:
 15000 starters.
  5163 different riders.
  639 teams.
  2246 stages.
  456 restdays.
  441957.60 km.
  5678 abandonnees.


Top 3
GC
Christopher Froome86:20:55
Rigoberto Urán86:21:49
Romain Bardet86:23:15
Climb
Warren Barguil169 pt.
Primoz Roglic80 pt.
Thomas De Gendt64 pt.
Sprint
Michael Matthews359 pt.
André Greipel234 pt.
Edvald Boasson Hagen220 pt.
Youth
Simon Yates86:27:09
Louis Meintjes86:29:15
Emanuel Buchmann86:54:16
Facts from Tour de France 1990
  |   Stages.  |   Stage winners.  |   Days in yellow  |   Average speed.  |   Route.  |   Teams.  |   All riders.  |   Rookies.  |  

  |   Withdrawls.  |   GC.  |   Polka  |   Green  |   White  |   Summits. (In tour)  |   Miscellaneous.  |  

Stage 11 on July 11th. 1990
         Owning:    Ronan Pensec    
Pick a stage:  Pro 1 2 3 4 5 6 7 8 9 10 11 12 13 14 15 16 17 18 19 20 21
From: Saint-Gervais    To: Alpe-d´HuezDist:182.50 km.
Cat: HCol de la MadeleineFRAThierry Claveyrolat
40 points
 
Cat: 1Col du GlandonFRAThierry Claveyrolat
30 points
 
Cat: HAlpe d'HuezSUIGianni Bugno
40 points
 

Average speed for all riders in stage:  30,478 km./hr.
    Place:Name:Team:Time:Km/h:
SUIGianni BugnoITAChateau d'Ax05:37:51  +  00:00:00=32,411 
USAGreg LeMondFRAZ-Peugeot05:37:51  +  00:00:00=32,411 
NEDErik BreukinkNLDPDM-Concorde05:37:52  +  00:00:01=32,409 
4 FRAThierry ClaveyrolatFRAR.M.O.-Mavic-Liberia05:37:55  +  00:00:04=32,404 
5 COLFabio Parra PintoESPKelme-Ibexpress05:37:57  +  00:00:06=32,401 
6 COLAbelardo RondonESPBanesto05:38:31  +  00:00:40=32,347 
7 USAAndy HampstenUSA7-Eleven-Hoonved05:38:31  +  00:00:40=32,347 
8 ESPPedro DelgadoESPBanesto05:38:31  +  00:00:40=32,347 
9 BELClaude CriquielionBELLotto-Superclub05:38:38  +  00:00:47=32,336 
10 FRARonan PensecFRAZ-Peugeot05:38:39  +  00:00:48=32,334 
11 SCORobert MillarFRAZ-Peugeot05:38:47  +  00:00:56=32,322 
12 ESPEduardo ChozasESPO.N.C.E.05:39:00  +  00:01:09=32,301 
13 ITAClaudio ChiappucciITACarrera Jeans-Vagabond05:39:17  +  00:01:26=32,274 
14 ESPAnselmo FuerteESPO.N.C.E.05:39:17  +  00:01:26=32,274 
15 FRAFabrice PhilipotFRACastorama-Raleigh05:39:25  +  00:01:34=32,261 
16 ITARoberto ContiITAAriostea05:39:53  +  00:02:02=32,217 
17 SUIJörg MüllerNLDTVM05:40:16  +  00:02:25=32,181 
18 FRAGilles DelionCHEHelvetia-La Suisse05:40:20  +  00:02:29=32,174 
19 BELJohan BruyneelBELLotto-Superclub05:41:15  +  00:03:24=32,088 
20 FRAÉric BoyerFRAZ-Peugeot05:41:24  +  00:03:33=32,074 
21 ESPMarino LejarretaESPO.N.C.E.05:41:24  +  00:03:33=32,074 
22 COLWilliam PalacioCOLRyalcao-Postobon05:41:36  +  00:03:45=32,055 
23 COLNelson RodriguezESPKelme-Ibexpress05:41:38  +  00:03:47=32,052 
24 ESPPello RuizESPO.N.C.E.05:42:14  +  00:04:23=31,996 
25 SUINiki RüttimannCHEHelvetia-La Suisse05:42:23  +  00:04:32=31,982 
26 NEDSteven RooksNLDPanasonic-Sportlife05:42:54  +  00:05:03=31,934 
27 SUIPascal RichardCHEHelvetia-La Suisse05:43:32  +  00:05:41=31,875 
28 FRAJerôme SimonFRAZ-Peugeot05:43:32  +  00:05:41=31,875 
29 NORAtle KvålsvollFRAZ-Peugeot05:43:32  +  00:05:41=31,875 
30 ESPRaúl AlcaláNLDPDM-Concorde05:43:32  +  00:05:41=31,875 
31 FRABruno CornilletFRAZ-Peugeot05:43:54  +  00:06:03=31,841 
32 BELPatrick RobeetCHEWeinmann-La Suisse-S.M.M. Uste..05:44:11  +  00:06:20=31,814 
33 URSDimitri KonychevITAAlfa Lum05:44:56  +  00:07:05=31,745 
34 IRLSean KellyNLDPDM-Concorde05:45:06  +  00:07:15=31,730 
35 DDRUwe AmplerNLDPDM-Concorde05:45:49  +  00:07:58=31,664 
36 FRAPascal LinoFRAR.M.O.-Mavic-Liberia05:47:47  +  00:09:56=31,485 
37 FRACharly MottetFRAR.M.O.-Mavic-Liberia05:47:51  +  00:10:00=31,479 
38 ESPMiguel Angel MartinezESPO.N.C.E.05:48:39  +  00:10:48=31,407 
39 SUIMauro GianettiCHEHelvetia-La Suisse05:49:14  +  00:11:23=31,354 
40 ESPMiguel IndurainESPBanesto05:49:46  +  00:11:55=31,307 
41 ESPJesus RodriguezESPBanesto05:50:08  +  00:12:17=31,274 
42 COLPablo HernandezCOLRyalcao-Postobon05:50:08  +  00:12:17=31,274 
43 COLGerardo MoncadaCOLRyalcao-Postobon05:50:14  +  00:12:23=31,265 
44 BELRudy DhaenensNLDPDM-Concorde05:50:19  +  00:12:28=31,257 
45 AUSStephen HodgeESPO.N.C.E.05:50:19  +  00:12:28=31,257 
46 FRAPascal SimonFRACastorama-Raleigh05:52:04  +  00:14:13=31,102 
47 COLCarlos JaramilloCOLRyalcao-Postobon05:52:27  +  00:14:36=31,068 
48 SUIGuido WinterbergCHEHelvetia-La Suisse05:54:01  +  00:16:10=30,931 
49 COLOscar VargasCOLRyalcao-Postobon05:55:55  +  00:18:04=30,766 
50 DENTony RomingerITAChateau d'Ax05:56:08  +  00:18:17=30,747 
51 DENBjarne RiisFRACastorama-Raleigh05:57:35  +  00:19:44=30,622 
52 ENGPhil AndersonNLDTVM05:58:35  +  00:20:44=30,537 
53 FRAJean-Claude ColottiFRAR.M.O.-Mavic-Liberia05:58:35  +  00:20:44=30,537 
54 FRAPhilippe LouviotNLDToshiba05:58:50  +  00:20:59=30,516 
55 COLAlvaro MejiaCOLRyalcao-Postobon05:58:50  +  00:20:59=30,516 
56 ESPVicente RidauraFRASeur05:59:14  +  00:21:23=30,482 
57 COLWilliam PulidoCOLRyalcao-Postobon05:59:15  +  00:21:24=30,480 
58 COLNéstor MoraESPKelme-Ibexpress05:59:15  +  00:21:24=30,480 
59 SUIBeat BreuCHEWeinmann-La Suisse-S.M.M. Uste..05:59:19  +  00:21:28=30,475 
60 FRAPascal LanceNLDToshiba05:59:36  +  00:21:45=30,451 
61 FRADominique ArnaudESPBanesto05:59:36  +  00:21:45=30,451 
62 CANSteve BauerUSA7-Eleven-Hoonved05:59:36  +  00:21:45=30,451 
63 COLJuan CastilloCOLRyalcao-Postobon05:59:36  +  00:21:45=30,451 
64 ITARoberto GusmeroliITAChateau d'Ax05:59:53  +  00:22:02=30,427 
65 COLReynel MontoyaCOLRyalcao-Postobon06:00:15  +  00:22:24=30,396 
66 NEDGerrit De VriesNLDBuckler06:00:22  +  00:22:31=30,386 
67 URSPiotr UgrumovITAAlfa Lum06:00:33  +  00:22:42=30,370 
68 NEDJos Van AertNLDPDM-Concorde06:00:53  +  00:23:02=30,342 
69 FRAChristophe LavainneFRACastorama-Raleigh06:01:05  +  00:23:14=30,325 
70 NORDag Otto LauritzenUSA7-Eleven-Hoonved06:01:05  +  00:23:14=30,325 
71 FRAJean-Claude BagotFRAR.M.O.-Mavic-Liberia06:01:22  +  00:23:31=30,302 
72 BELJos HaexBELLotto-Superclub06:01:25  +  00:23:34=30,297 
73 ITAAlberto VolpiITAChateau d'Ax06:01:25  +  00:23:34=30,297 
74 ITAValerio PivaITAAriostea06:01:25  +  00:23:34=30,297 
75 BELGuy NulensNLDPanasonic-Sportlife06:01:50  +  00:23:59=30,263 
76 SUIThomas WegmüllerCHEWeinmann-La Suisse-S.M.M. Uste..06:01:59  +  00:24:08=30,250 
77 NEDMaarten DucrotNLDTVM06:02:02  +  00:24:11=30,246 
78 FRALaurent PillonBELHistor-Sigma06:02:04  +  00:24:13=30,243 
79 FRALaurent BiondiBELHistor-Sigma06:02:04  +  00:24:13=30,243 
80 IRLStephen RocheBELHistor-Sigma06:02:04  +  00:24:13=30,243 
81 FRALuc LeblancFRACastorama-Raleigh06:02:04  +  00:24:13=30,243 
82 ESPLuis LukinESPBanesto06:02:08  +  00:24:17=30,237 
83 FRADenis RouxNLDToshiba06:02:30  +  00:24:39=30,207 
84 PORJosé FerreiraFRASeur06:02:49  +  00:24:58=30,181 
85 ESPJosé UreaFRASeur06:02:49  +  00:24:58=30,181 
86 DENBrian HolmBELHistor-Sigma06:02:49  +  00:24:58=30,181 
87 ITABruno CenghialtaITAAriostea06:02:49  +  00:24:58=30,181 
88 FRAGilbert Duclos-LassalleFRAZ-Peugeot06:02:49  +  00:24:58=30,181 
89 FRAFrançois LemarchandFRAZ-Peugeot06:02:49  +  00:24:58=30,181 
90 BELPaul HaghedoorenBELHistor-Sigma06:02:49  +  00:24:58=30,181 
91 USABob RollUSA7-Eleven-Hoonved06:02:49  +  00:24:58=30,181 
92 USARonald KiefelUSA7-Eleven-Hoonved06:02:49  +  00:24:58=30,181 
93 BELPeter RoesBELLotto-Superclub06:02:49  +  00:24:58=30,181 
94 BELWilfried PeetersBELHistor-Sigma06:02:49  +  00:24:58=30,181 
95 BELWillem Van EyndeBELLotto-Superclub06:02:49  +  00:24:58=30,181 
96 BELPatrick VerschuerenBELLotto-Superclub06:02:49  +  00:24:58=30,181 
97 BELJohan MuseeuwBELLotto-Superclub06:02:49  +  00:24:58=30,181 
98 DDRJan SchurITAChateau d'Ax06:02:49  +  00:24:58=30,181 
99 NEDAdri Van Der PoelCHEWeinmann-La Suisse-S.M.M. Uste..06:02:49  +  00:24:58=30,181 
100 USAAndrew BishopUSA7-Eleven-Hoonved06:03:26  +  00:25:35=30,129 
101 DDRMario KummerITAChateau d'Ax06:03:39  +  00:25:48=30,111 
102 NEDGerrit SolleveldNLDBuckler06:03:46  +  00:25:55=30,102 
103 ESPMelchor MauriESPO.N.C.E.06:03:46  +  00:25:55=30,102 
104 ITAAlberto ElliITAAriostea06:03:49  +  00:25:58=30,098 
105 FRAJean-Claude LeclercqCHEHelvetia-La Suisse06:03:55  +  00:26:04=30,089 
106 DENSøren LilholtBELHistor-Sigma06:03:58  +  00:26:07=30,085 
107 FRAFrédéric BrunFRAR.M.O.-Mavic-Liberia06:04:11  +  00:26:20=30,067 
108 DDRUwe RaabNLDPDM-Concorde06:04:11  +  00:26:20=30,067 
109 GERAndreas KappesNLDToshiba06:04:51  +  00:27:00=30,012 
110 FRARoland Le ClercNLDToshiba06:04:51  +  00:27:00=30,012 
111 ITAAlessandro GiannelliITACarrera Jeans-Vagabond06:05:03  +  00:27:12=29,996 
112 ITAGiancarlo PeriniITACarrera Jeans-Vagabond06:05:03  +  00:27:12=29,996 
113 SUIKurt SteinmannCHEWeinmann-La Suisse-S.M.M. Uste..06:05:03  +  00:27:12=29,996 
114 SUIHans-Rüdi MärkiCHEHelvetia-La Suisse06:05:03  +  00:27:12=29,996 
115 ESPJuan MartinezESPBanesto06:05:03  +  00:27:12=29,996 
116 ESPMarino MonjeESPBanesto06:05:03  +  00:27:12=29,996 
117 ITAMauro-Antonio SantaromitaITAChateau d'Ax06:05:03  +  00:27:12=29,996 
118 NEDGert JakobsNLDPDM-Concorde06:05:06  +  00:27:15=29,992 
119 BELMichel DerniesCHEWeinmann-La Suisse-S.M.M. Uste..06:06:12  +  00:28:21=29,902 
120 ITADavide CassaniITAAriostea06:06:12  +  00:28:21=29,902 
121 FRAVincent BarteauFRACastorama-Raleigh06:06:33  +  00:28:42=29,873 
122 FRAThierry MarieFRACastorama-Raleigh06:06:33  +  00:28:42=29,873 
123 FRAThierry LaurentFRAR.M.O.-Mavic-Liberia06:06:33  +  00:28:42=29,873 
124 BELEric Van LanckerNLDPanasonic-Sportlife06:06:33  +  00:28:42=29,873 
125 ITAMarcello SiboniITAAriostea06:06:33  +  00:28:42=29,873 
126 NEDHenri MandersCHEHelvetia-La Suisse06:06:33  +  00:28:42=29,873 
127 URSViatcheslav EkimovNLDPanasonic-Sportlife06:06:33  +  00:28:42=29,873 
128 BELMarc SergeantNLDPanasonic-Sportlife06:06:33  +  00:28:42=29,873 
129 BELCarlo BomansCHEWeinmann-La Suisse-S.M.M. Uste..06:06:33  +  00:28:42=29,873 
130 BELPeter De ClercqBELLotto-Superclub06:06:33  +  00:28:42=29,873 
131 NEDMartin SchalkersNLDTVM06:06:33  +  00:28:42=29,873 
132 DENJohnny WeltzESPO.N.C.E.06:06:33  +  00:28:42=29,873 
133 BELMichel VermoteFRAR.M.O.-Mavic-Liberia06:06:33  +  00:28:42=29,873 
134 NEDPatrick TolhoekNLDBuckler06:06:33  +  00:28:42=29,873 
135 USANorman AlvisUSA7-Eleven-Hoonved06:06:33  +  00:28:42=29,873 
136 NEDFrans MaassenNLDBuckler06:06:43  +  00:28:52=29,860 
137 NEDEdwig Van HooydonckNLDBuckler06:06:43  +  00:28:52=29,860 
138 ENGSean YatesUSA7-Eleven-Hoonved06:06:49  +  00:28:58=29,851 
139 URSAlexandre TrubineITAAlfa Lum06:06:53  +  00:29:02=29,846 
140 NEDToine PoelsNLDBuckler06:07:04  +  00:29:13=29,831 
141 ITAGuiseppe CalcaterraITAChateau d'Ax06:07:24  +  00:29:33=29,804 
142 ESPHerminio ZabalaESPO.N.C.E.06:07:48  +  00:29:57=29,772 
143 PORAcacio da SilvaITACarrera Jeans-Vagabond06:07:51  +  00:30:00=29,768 
144 SUIErich MächlerITACarrera Jeans-Vagabond06:07:51  +  00:30:00=29,768 
145 ESPPablo MorenoFRASeur06:07:51  +  00:30:00=29,768 
146 BELJan GoessensCHEWeinmann-La Suisse-S.M.M. Uste..06:07:51  +  00:30:00=29,768 
147 ITAGiovanni FidanzaITAChateau d'Ax06:08:24  +  00:30:33=29,723 
148 NEDJean-Paul van PoppelNLDPanasonic-Sportlife06:08:55  +  00:31:04=29,682 
149 URSNikolai GolovatenkoITAAlfa Lum06:08:55  +  00:31:04=29,682 
150 NEDJan SiemonsNLDTVM06:09:05  +  00:31:14=29,668 
151 URSIvan IvanovITAAlfa Lum06:09:35  +  00:31:44=29,628 
152 ESPAntonio DiasESPKelme-Ibexpress06:09:40  +  00:31:49=29,621 
153 ITAGuido BontempiITACarrera Jeans-Vagabond06:10:09  +  00:32:18=29,583 
154 ENGMaximilian SciandriITACarrera Jeans-Vagabond06:10:40  +  00:32:49=29,541 
155 ITAAdriano BaffiITAAriostea06:10:43  +  00:32:52=29,537 
156 ITARodolfo MassiITAAriostea06:10:43  +  00:32:52=29,537 
157 ITAMassimo GhirottoITACarrera Jeans-Vagabond06:10:43  +  00:32:52=29,537 
158 NEDJelle NijdamNLDBuckler06:10:56  +  00:33:05=29,520 
159 SUIOthmar HäfligerCHEHelvetia-La Suisse06:12:00  +  00:34:09=29,435 
160 FRAChristian ChaubetNLDToshiba06:12:06  +  00:34:15=29,428 
161 URSVasily ZhdanovITAAlfa Lum06:12:07  +  00:34:16=29,426 
162 BELHendrik RedantBELLotto-Superclub06:14:44  +  00:36:53=29,221 
163 DDROlaf LudwigNLDPanasonic-Sportlife06:14:58  +  00:37:07=29,203 
164 ITAGiuseppe SaronniESPKelme-Ibexpress06:16:38  +  00:38:47=29,073 
165 ESPJesús RosadoESPKelme-Ibexpress06:17:38  +  00:39:47=28,996 
166 USADavis PhinneyUSA7-Eleven-Hoonved06:18:38  +  00:40:47=28,920 
167 ESPAntonio EspejoESPKelme-Ibexpress06:18:38  +  00:40:47=28,920 
168 ITAFlavio GiupponiITACarrera Jeans-Vagabond06:19:14  +  00:41:23=28,874 
169 URSAsiat SaitovITAAlfa Lum06:19:14  +  00:41:23=28,874 
170 URSDjamolidine AbduzhaparovITAAlfa Lum06:21:10  +  00:43:19=28,728 
171 FRAFrancis MoreauBELHistor-Sigma06:26:33  +  00:48:42=28,328 

Withdrawls: 9
 
Rider
Team
Reason
35  IRLMartin EarleyNLDPDM-ConcordeDid not finish
54  FRAÉric CaritouxFRAR.M.O.-Mavic-LiberiaDid not finish
94  BELJean-Pierre HeynderickxFRASeurDid not finish
102  SUIAlfred AckermannCHEWeinmann-La Suisse-S.M.M. UsterDid not finish
121  FRAJean-François BernardNLDToshibaDid not finish
164  BELPatrick JacobsNLDTVMDid not finish
169  DENJesper SkibbyNLDTVMDid not start
188  BELEric VanderaerdenNLDBucklerDisqualified
219  URSSergei UslaminITAAlfa LumDid not finish

Todays birthdays.

1877  Antoine Perrichon
1878  Auguste Berthault
1911  Théo Herckenrath
1924  Carlo Lafranchi
1931  Armand Di Caro
1937  Jean-Claude Lebaube
1951  Giovanni Battaglin
1961  Pascal Jules
1962  Jean-Claude Leclercq
1976  Janek Tombak
1978  Francisco Pérez
1983  Dries Devenyns




Visits: